Content
SEND FEEDBACK

Daily
Averages
Monthly
Summary
United States of America

ELK RIVER, MINNESOTA


Home > North America > United States > Minnesota
Elevation: 910 feet     Latitude: 45 18N     Longitude: 093 35W

WEATHER
 
SELECT A DAY
Number of Records: 245,675;   Date Range: 6/10/04 - 8/12/14
 
SHARE

PRINT THIS DATA

[ ← Previous Day ]
WEATHER ALMANAC - FEBRUARY 13, 2013
[ Next Day → ]
[ °C ]   °F
Weather ElementAverageHighLow
Temperature27.3 °F35.1 °F (2:14 pm)18.3 °F (6:34 am)
Dewpoint24 °F32 °F (7:35 pm)16.3 °F (3:55 am)
Humidity88 %100 % (7:35 pm)70 % (12:55 pm)
Barometer29.67 in29.80 in (12:34 am)29.56 in (8:54 pm)
Wind Speed2.8 mph8.1 mph (10:35 am)
Weather ElementAverage
Visibility7.4 mi
Wind DirectionESE (120.4 °)

Weather ElementTotal
Precipitation0.27 in
Heating Degree Days38.3 (Base 65)
Averaged from 70 records on February 13, 2013
WEATHER CONDITIONS BREAKOUT
WIND DIRECTION BREAKOUT
WEATHER BY HOUR - FEBRUARY 13, 2013
[ °C ]   °F
Local TimeTemperatureDewpointHumidityBarometerVisibilityWind DirectionWind SpeedGust SpeedPrecipitationEventsConditions
12:34 AM20.5 °F17.6 °F89 %29.80 in10.0 miWSW (250°)4.6 mphMostly Cloudy
12:55 AM21.0 °F17.6 °F87 %29.79 in10.0 miSW (230°)3.5 mphMostly Cloudy
1:14 AM21.2 °F18.1 °F88 %29.78 in10.0 miCalmOvercast
1:34 AM20.8 °F17.6 °F87 %29.78 in10.0 miCalmOvercast
1:55 AM21.2 °F18.3 °F89 %29.78 in10.0 miCalmOvercast
2:14 AM21.0 °F18.1 °F89 %29.78 in10.0 miCalmOvercast
2:34 AM21.2 °F18.3 °F89 %29.77 in10.0 miCalmOvercast
2:55 AM20.7 °F17.8 °F89 %29.77 in10.0 miSW (220°)3.5 mphOvercast
3:14 AM20.1 °F17.4 °F89 %29.77 in10.0 miSSW (210°)4.6 mphScattered Clouds
3:34 AM20.1 °F17.6 °F90 %29.76 in10.0 miSW (220°)4.6 mphClear
3:55 AM18.9 °F16.3 °F90 %29.76 in10.0 miCalmClear
4:15 AM19.2 °F17.2 °F92 %29.76 in10.0 miCalmScattered Clouds
4:34 AM18.7 °F16.9 °F93 %29.76 in10.0 miWSW (240°)4.6 mphMostly Cloudy
4:55 AM19.6 °F17.4 °F91 %29.74 in10.0 miSW (220°)3.5 mphMostly Cloudy
5:15 AM19.0 °F16.9 °F91 %29.74 in10.0 miSSW (210°)3.5 mphMostly Cloudy
5:34 AM18.9 °F17.1 °F93 %29.74 in10.0 miSouth (190°)3.5 mphOvercast
5:55 AM19.4 °F17.4 °F92 %29.74 in10.0 miSSW (200°)3.5 mphOvercast
6:15 AM18.5 °F16.7 °F93 %29.73 in10.0 miCalmMostly Cloudy
6:34 AM18.3 °F16.3 °F92 %29.73 in10.0 miCalmOvercast
6:55 AM18.3 °F16.5 °F93 %29.73 in10.0 miCalmOvercast
7:15 AM18.5 °F16.5 °F92 %29.72 in10.0 miCalmOvercast
7:34 AM18.7 °F16.7 °F92 %29.72 in10.0 miCalmOvercast
7:55 AM19.2 °F17.2 °F92 %29.72 in10.0 miCalmOvercast
8:15 AM20.1 °F18.0 °F91 %29.71 in10.0 miSouth (180°)3.5 mphOvercast
8:34 AM20.8 °F18.1 °F89 %29.71 in10.0 miSouth (180°)3.5 mphMostly Cloudy
8:55 AM21.2 °F18.1 °F88 %29.71 in10.0 miSouth (190°)3.5 mphMostly Cloudy
9:14 AM21.7 °F18.5 °F87 %29.70 in10.0 miSouth (180°)3.5 mphMostly Cloudy
9:34 AM23.7 °F19.4 °F84 %29.70 in10.0 miSouth (170°)5.8 mphMostly Cloudy
9:55 AM24.8 °F20.5 °F84 %29.71 in10.0 miSSW (200°)4.6 mphOvercast
10:14 AM25.7 °F20.8 °F82 %29.70 in10.0 miSSW (200°)6.9 mphScattered Clouds
10:35 AM27.1 °F21.6 °F80 %29.70 in10.0 miSSW (210°)8.1 mphClear
10:55 AM28.2 °F22.1 °F78 %29.70 in10.0 miSSW (210°)8.1 mphClear
11:14 AM29.3 °F22.8 °F77 %29.69 in10.0 miSSW (200°)6.9 mphClear
11:35 AM32.0 °F24.6 °F74 %29.69 in10.0 miSouth (190°)4.6 mphClear
11:55 AM32.9 °F24.8 °F72 %29.68 in10.0 miSouth (180°)5.8 mphClear
12:14 PM33.3 °F25.2 °F72 %29.66 in10.0 miSouth (180°)6.9 mphClear
12:35 PM33.8 °F25.5 °F72 %29.66 in10.0 miSSW (210°)6.9 mphMostly Cloudy
12:55 PM34.0 °F25.2 °F70 %29.65 in10.0 miSSW (210°)6.9 mphScattered Clouds
1:14 PM34.0 °F25.5 °F71 %29.64 in10.0 miSSW (210°)6.9 mphScattered Clouds
1:35 PM34.5 °F26.1 °F71 %29.64 in10.0 miSSW (210°)6.9 mphScattered Clouds
1:55 PM34.2 °F26.2 °F73 %29.63 in10.0 miSSW (210°)4.6 mphScattered Clouds
2:14 PM35.1 °F26.4 °F71 %29.63 in10.0 miSouth (180°)4.6 mphMostly Cloudy
2:35 PM34.7 °F26.8 °F73 %29.63 in10.0 miSSW (200°)4.6 mphOvercast
2:55 PM34.3 °F27.3 °F76 %29.63 in10.0 miSSW (210°)8.1 mphMostly Cloudy
3:14 PM34.0 °F27.1 °F76 %29.63 in10.0 miSSW (200°)5.8 mphMostly Cloudy
3:55 PM34.7 °F28.0 °F77 %29.63 in10.0 miCalmOvercast
4:14 PM34.2 °F28.4 °F79 %29.62 in7.0 miSouth (180°)4.6 mphSnowLight Snow
4:35 PM34.0 °F28.6 °F81 %29.62 in10.0 miCalmOvercast
4:55 PM34.0 °F28.8 °F81 %29.61 in10.0 miCalmOvercast
5:14 PM33.8 °F29.3 °F84 %29.61 in3.0 miCalmRainLight Rain
5:35 PM32.9 °F30.0 °F89 %29.60 in1.2 miCalmOvercast
5:55 PM32.0 °F30.7 °F95 %29.60 in1.8 miCalmOvercast
6:14 PM32.0 °F31.1 °F96 %29.60 in1.5 miCalmSnowLight Snow
6:35 PM32.0 °F31.5 °F98 %29.60 in1.8 miCalm0.01 inSnowLight Snow
6:55 PM32.0 °F31.3 °F97 %29.60 in2.0 miCalm0.01 inOvercast
7:14 PM32.0 °F31.5 °F98 %29.60 in1.5 miCalm0.01 inRainHeavy Rain
7:35 PM32.0 °F32.0 °F100 %29.59 in1.5 miCalm0.02 inRainLight Rain
7:54 PM32.0 °F32.0 °F100 %29.58 in1.8 miCalm0.02 inSnowLight Snow
8:14 PM32.0 °F32.0 °F100 %29.58 in2.0 miCalm0.01 inSnowLight Snow
8:35 PM32.0 °F32.0 °F100 %29.57 in1.5 miCalm0.02 inRainHeavy Rain
8:54 PM32.0 °F32.0 °F100 %29.56 in1.2 miCalm0.03 inOvercast
9:14 PM32.0 °F32.0 °F100 %29.56 in1.0 miCalm0.01 inSnowLight Snow
9:35 PM32.0 °F31.8 °F99 %29.56 in1.0 miCalm0.02 inSnowLight Snow
9:54 PM32.0 °F31.8 °F99 %29.56 in1.0 miCalm0.03 inSnowSnow
10:14 PM32.0 °F31.8 °F99 %29.57 in1.0 miCalm0.01 inSnowLight Snow
10:35 PM32.0 °F31.8 °F99 %29.57 in1.2 miNorth (350°)3.5 mph0.02 inSnowLight Snow
10:54 PM32.0 °F31.6 °F99 %29.58 in2.0 miNorth (350°)4.6 mph0.03 inSnowLight Snow
11:14 PM31.8 °F31.5 °F99 %29.58 in2.0 miNorth (350°)4.6 mphOvercast
11:35 PM31.6 °F31.3 °F99 %29.59 in1.8 miNorth (350°)5.8 mph0.01 inSnowLight Snow
11:54 PM31.6 °F31.1 °F98 %29.60 in1.8 miNorth (350°)4.6 mph0.01 inOvercast
Hourly data recorded from KCFE, located miles away from Elk River, Minnesota







STORIES FROM OUR PARTNERS